This is the latest recevied weather packets stored in our database for station/object 9M4GHZ-13. If no packets are shown the sender has not sent any weather packets the latest 10 day(s).
| Time | Temp. | Humidity | Pressure | Rain* | Wind** | Luminosity | Snow |
|---|---|---|---|---|---|---|---|
| 1778088005 | 25° C | 97% | 1009.1 hPa | - | - | - | - |
| 1778087406 | 25° C | 96% | 1009.1 hPa | - | - | - | - |
| 1778086804 | 25° C | 96% | 1009.5 hPa | - | - | - | - |
| 1778086205 | 24.44° C | 96% | 1009.5 hPa | - | - | - | - |
| 1778085605 | 24.44° C | 96% | 1009.2 hPa | - | - | - | - |
| 1778085003 | 24.44° C | 97% | 1009.1 hPa | - | - | - | - |
| 1778084405 | 24.44° C | 97% | 1009.2 hPa | - | - | - | - |
| 1778083806 | 23.89° C | 97% | 1009.3 hPa | - | - | - | - |
| 1778083204 | 23.89° C | 97% | 1009.3 hPa | - | - | - | - |
| 1778082605 | 24.44° C | 97% | 1009.5 hPa | - | - | - | - |
| 1778082005 | 24.44° C | 97% | 1009.7 hPa | - | - | - | - |
| 1778081404 | 24.44° C | 97% | 1009.9 hPa | - | - | - | - |
| 1778080805 | 25° C | 96% | 1010 hPa | - | - | - | - |
| 1778080206 | 25.56° C | 96% | 1009.9 hPa | - | - | - | - |
| 1778079604 | 25.56° C | 96% | 1009.7 hPa | - | - | - | - |
| 1778079005 | 26.11° C | 96% | 1009.5 hPa | - | - | - | - |
| 1778078406 | 26.11° C | 95% | 1008.9 hPa | - | - | - | - |
| 1778077805 | 26.67° C | 93% | 1009 hPa | - | - | - | - |
| 1778077205 | 26.67° C | 94% | 1008.9 hPa | - | - | - | - |
| 1778076605 | 26.67° C | 94% | 1008.9 hPa | - | - | - | - |
| 1778076004 | 26.67° C | 93% | 1008.3 hPa | - | - | - | - |
| 1778075406 | 26.67° C | 93% | 1008.5 hPa | - | - | - | - |
| 1778074805 | 26.67° C | 93% | 1008.6 hPa | - | - | - | - |
| 1778074205 | 27.22° C | 92% | 1008.5 hPa | - | - | - | - |
| 1778073605 | 27.22° C | 91% | 1008.3 hPa | - | - | - | - |
* Rain since midnight (hover to see other rain measurements)
** Current wind speed in m/s (hover to see current wind gust speed)